Retour au catalogue

COSMOS 2251 DEB

ActifLEO
NORAD 39110·DEBRIS·🇷🇺 Russia

Lancé Jun 16, 1993 depuis Plesetsk Cosmodrome

Loading…

Prochains Passages (prochaines 24 heures)

TLE

PériméSource: Space-Track

Époque: Sep 7, 2026, 06:49 UTC

1 39110U 93036BTZ 26250.28431045  .00001161  00000-0  17276-3 0  9992
2 39110  73.9539 255.8570 0092408  64.1751 309.5515 14.73358782664384

Suivez COSMOS 2251 DEB en temps réel avec AllMySat

Download on the App Store